contact:dominique.lefevre@mio.osupytheas.fr, maurice.libes@osupytheas.fr, didier.mallarino@osupytheas.fr
Project:EMSO http://www.emso-fr.org/EMSO-France
Depth: 2436.0 m
Title:EMSO Ligure Ouest : Data MII capteur AQUADOPP
Date,Latitude,Longitude,X_East,Y_North,Z_Up,Amplitude_X,Amplitude_Y,Amplitude_Z,Batterie,SoundSpeed,Heading,Pitch,Roll,Pressure,TIS,Speed,Direction
, degrees North, degrees East, m.s-1, m.s-1,m.s-1, 1, 1, 1, Volt, m.s-1, degree, degree, degree, dbar, degree_C, m.s-1, degree
2023-02-18T00:04:03,42.805,6.029,-0.026,-0.008,0.005,108.0,106.0,105.0,13.4,1505.2,320.2,-0.8,1.8,2471.035,13.29,0.027,252.9
2023-02-18T00:07:03,42.805,6.029,-0.001,-0.004,-0.036,109.0,106.0,105.0,13.4,1505.2,319.9,-0.7,1.8,2471.081,13.29,0.004,194.0
2023-02-18T00:10:03,42.805,6.029,-0.005,-0.02,0.01,107.0,107.0,105.0,13.3,1505.2,334.5,-0.8,1.9,2471.089,13.29,0.02,194.0
2023-02-18T00:13:03,42.805,6.029,-0.04,-0.008,-0.006,107.0,105.0,105.0,13.4,1505.2,320.2,-0.8,1.8,2471.009,13.29,0.04,258.7
2023-02-18T00:16:03,42.805,6.029,-0.003,0.006,0.013,108.0,107.0,105.0,13.4,1505.2,317.8,-0.8,1.8,2471.055,13.29,0.006,333.4
2023-02-18T00:19:03,42.805,6.029,0.008,-0.002,-0.024,108.0,107.0,104.0,13.4,1505.2,334.6,-0.8,1.8,2470.997,13.29,0.008,104.0
2023-02-18T00:22:03,42.805,6.029,-0.002,0.001,-0.042,107.0,107.0,104.0,13.4,1505.2,321.4,-0.7,1.8,2471.043,13.29,0.002,296.6
2023-02-18T00:25:03,42.805,6.029,-0.027,-0.008,-0.032,106.0,106.0,104.0,13.3,1505.2,321.3,-0.7,1.8,2471.035,13.29,0.028,253.5
2023-02-18T00:28:03,42.805,6.029,-0.005,0.006,-0.016,106.0,107.0,105.0,13.4,1505.2,329.1,-0.8,1.8,2470.999,13.29,0.007,320.2
2023-02-18T00:31:03,42.805,6.029,-0.004,0.0,-0.005,106.0,105.0,104.0,13.4,1505.2,315.5,-0.8,1.8,2471.027,13.29,0.004,270.0
2023-02-18T00:34:03,42.805,6.029,0.001,0.009,-0.008,106.0,106.0,104.0,13.4,1505.2,321.3,-0.8,1.8,2471.06,13.29,0.009,6.3
2023-02-18T00:37:03,42.805,6.029,-0.002,-0.006,-0.001,106.0,105.0,104.0,13.4,1505.2,324.8,-0.7,1.8,2471.047,13.29,0.006,198.4
2023-02-18T00:40:03,42.805,6.029,-0.002,-0.016,-0.036,107.0,106.0,105.0,13.4,1505.2,320.8,-0.8,1.8,2471.044,13.29,0.016,187.1
2023-02-18T00:43:03,42.805,6.029,-0.013,-0.019,-0.033,107.0,106.0,105.0,13.4,1505.2,327.6,-0.7,1.8,2471.024,13.29,0.023,214.4
2023-02-18T00:46:03,42.805,6.029,-0.009,-0.012,-0.027,108.0,106.0,104.0,13.3,1505.2,328.5,-0.8,1.8,2471.01,13.29,0.015,216.9
2023-02-18T00:49:03,42.805,6.029,0.005,-0.024,-0.03,107.0,106.0,105.0,13.4,1505.2,332.6,-0.8,1.8,2471.037,13.29,0.024,168.2
2023-02-18T00:52:03,42.805,6.029,0.012,-0.013,-0.022,109.0,107.0,105.0,13.3,1505.2,336.8,-0.7,1.8,2470.974,13.29,0.017,137.3
2023-02-18T00:55:03,42.805,6.029,0.001,0.001,-0.002,107.0,108.0,104.0,13.4,1505.2,338.5,-0.8,1.8,2471.031,13.29,0.001,45.0
2023-02-18T00:58:03,42.805,6.029,-0.002,-0.029,-0.019,108.0,106.0,105.0,13.4,1505.2,323.4,-0.7,1.8,2470.997,13.29,0.029,183.9
2023-02-18T01:04:03,42.805,6.029,0.006,0.003,-0.016,110.0,109.0,106.0,13.4,1505.2,327.5,-0.8,1.8,2471.127,13.29,0.006,63.4
2023-02-18T01:07:03,42.805,6.029,-0.019,-0.015,-0.03,107.0,107.0,105.0,13.4,1505.2,327.8,-0.8,1.8,2471.082,13.29,0.024,231.7
2023-02-18T01:10:03,42.805,6.029,0.011,0.006,-0.028,107.0,107.0,104.0,13.4,1505.2,333.0,-0.8,1.8,2471.093,13.29,0.012,61.4
2023-02-18T01:13:03,42.805,6.029,0.005,-0.016,-0.028,107.0,107.0,105.0,13.3,1505.2,319.4,-0.7,1.9,2471.05,13.29,0.016,162.6
2023-02-18T01:16:03,42.805,6.029,-0.009,-0.025,-0.014,107.0,106.0,105.0,13.3,1505.2,325.2,-0.8,1.8,2471.077,13.29,0.026,199.8
2023-02-18T01:19:03,42.805,6.029,-0.012,-0.003,-0.022,107.0,107.0,105.0,13.4,1505.2,335.4,-0.8,1.8,2471.096,13.29,0.012,256.0
2023-02-18T01:22:03,42.805,6.029,0.005,-0.024,-0.009,107.0,107.0,104.0,13.3,1505.2,320.4,-0.8,1.8,2471.079,13.29,0.024,168.2
2023-02-18T01:25:03,42.805,6.029,0.002,-0.021,-0.019,108.0,107.0,103.0,13.4,1505.2,317.4,-0.8,1.8,2471.059,13.29,0.021,174.6
2023-02-18T01:28:03,42.805,6.029,0.005,-0.013,-0.023,107.0,106.0,104.0,13.3,1505.2,333.4,-0.8,1.8,2471.069,13.29,0.013,159.0
2023-02-18T01:31:03,42.805,6.029,0.001,-0.006,0.011,108.0,106.0,105.0,13.4,1505.2,326.5,-0.8,1.8,2471.094,13.29,0.006,170.5
2023-02-18T01:34:03,42.805,6.029,-0.001,-0.014,-0.019,107.0,106.0,105.0,13.4,1505.2,326.5,-0.7,1.8,2471.061,13.29,0.014,184.1
2023-02-18T01:37:03,42.805,6.029,0.009,-0.022,0.003,106.0,107.0,105.0,13.4,1505.2,327.8,-0.7,1.8,2471.045,13.29,0.023,157.8
2023-02-18T01:40:03,42.805,6.029,-0.004,-0.021,0.024,108.0,106.0,105.0,13.4,1505.2,331.6,-0.8,1.8,2471.051,13.29,0.021,190.8
2023-02-18T01:43:03,42.805,6.029,-0.018,-0.023,-0.016,108.0,106.0,106.0,13.3,1505.2,315.5,-0.8,1.8,2471.071,13.29,0.029,218.0
2023-02-18T01:46:03,42.805,6.029,0.002,-0.011,0.011,108.0,106.0,106.0,13.4,1505.2,320.9,-0.7,1.8,2471.056,13.29,0.011,169.7
2023-02-18T01:49:03,42.805,6.029,0.01,0.002,-0.013,108.0,107.0,105.0,13.3,1505.2,340.0,-0.7,1.8,2471.041,13.29,0.01,78.7
2023-02-18T01:52:03,42.805,6.029,-0.01,-0.032,-0.002,108.0,108.0,104.0,13.4,1505.2,322.4,-0.8,1.8,2471.074,13.29,0.033,197.4
2023-02-18T01:55:03,42.805,6.029,-0.011,-0.015,-0.029,108.0,109.0,106.0,13.4,1505.2,331.1,-0.8,1.8,2471.094,13.29,0.018,216.3
2023-02-18T01:58:03,42.805,6.029,-0.011,-0.011,-0.011,109.0,107.0,105.0,13.4,1505.2,317.2,-0.8,1.8,2471.076,13.29,0.015,225.0
2023-02-18T02:04:03,42.805,6.029,0.004,-0.026,-0.021,108.0,108.0,106.0,13.4,1505.2,320.3,-0.8,1.8,2471.139,13.28,0.026,171.3
2023-02-18T02:07:03,42.805,6.029,-0.01,-0.003,0.005,108.0,108.0,105.0,13.4,1505.2,332.9,-0.8,1.8,2471.134,13.29,0.01,253.3
2023-02-18T02:10:03,42.805,6.029,0.002,-0.011,-0.019,109.0,108.0,106.0,13.3,1505.2,330.5,-0.7,1.8,2471.137,13.29,0.011,169.7
2023-02-18T02:13:03,42.805,6.029,0.001,-0.019,0.024,108.0,107.0,104.0,13.4,1505.2,319.8,-0.8,1.8,2471.101,13.29,0.019,177.0
2023-02-18T02:16:03,42.805,6.029,0.0,-0.033,-0.028,108.0,107.0,105.0,13.4,1505.2,330.8,-0.8,1.8,2471.094,13.29,0.033,180.0
2023-02-18T02:19:03,42.805,6.029,-0.006,-0.008,0.002,109.0,107.0,105.0,13.4,1505.2,322.7,-0.7,1.8,2471.09,13.29,0.01,216.9
2023-02-18T02:22:03,42.805,6.029,0.003,-0.006,-0.017,108.0,107.0,106.0,13.4,1505.2,339.4,-0.8,1.9,2471.153,13.29,0.006,153.4
2023-02-18T02:25:03,42.805,6.029,-0.023,-0.022,-0.038,108.0,108.0,105.0,13.4,1505.2,319.8,-0.8,1.8,2471.124,13.29,0.031,226.3
2023-02-18T02:28:03,42.805,6.029,-0.022,-0.027,-0.033,108.0,106.0,105.0,13.4,1505.2,319.0,-0.8,1.8,2471.145,13.29,0.034,219.2
2023-02-18T02:31:03,42.805,6.029,0.001,-0.009,-0.009,107.0,107.0,104.0,13.3,1505.2,323.6,-0.7,1.8,2471.102,13.29,0.009,173.7
2023-02-18T02:34:03,42.805,6.029,-0.015,-0.019,-0.016,108.0,107.0,105.0,13.3,1505.2,324.6,-0.8,1.8,2471.133,13.29,0.024,218.3
2023-02-18T02:37:03,42.805,6.029,-0.014,-0.006,0.017,108.0,109.0,104.0,13.4,1505.2,317.7,-0.7,1.8,2471.157,13.29,0.015,246.8
2023-02-18T02:40:03,42.805,6.029,-0.023,0.001,0.007,110.0,106.0,107.0,13.3,1505.2,329.8,-0.8,1.8,2471.1,13.29,0.023,272.5
2023-02-18T02:43:03,42.805,6.029,-0.007,-0.009,-0.001,108.0,107.0,106.0,13.4,1505.2,324.6,-0.8,1.9,2471.103,13.29,0.011,217.9
2023-02-18T02:46:03,42.805,6.029,-0.013,-0.002,-0.023,108.0,107.0,105.0,13.4,1505.2,329.7,-0.7,1.8,2471.11,13.29,0.013,261.3
2023-02-18T02:49:03,42.805,6.029,-0.002,-0.01,-0.002,109.0,106.0,106.0,13.3,1505.2,328.7,-0.8,1.8,2471.122,13.29,0.01,191.3
2023-02-18T02:52:03,42.805,6.029,-0.02,-0.028,-0.033,110.0,107.0,105.0,13.4,1505.2,332.2,-0.8,1.8,2471.125,13.29,0.034,215.5
2023-02-18T02:55:03,42.805,6.029,-0.014,-0.001,0.003,109.0,107.0,106.0,13.4,1505.2,334.2,-0.8,1.8,2471.128,13.29,0.014,265.9
2023-02-18T02:58:03,42.805,6.029,-0.007,-0.013,0.008,109.0,110.0,105.0,13.4,1505.2,337.4,-0.7,1.8,2471.121,13.29,0.014,208.3
2023-02-18T03:04:03,42.805,6.029,-0.012,-0.031,-0.053,108.0,107.0,105.0,13.4,1505.2,316.7,-0.8,1.8,2471.135,13.29,0.033,201.2
2023-02-18T03:07:03,42.805,6.029,-0.012,0.0,-0.007,107.0,107.0,104.0,13.4,1505.2,316.7,-0.8,1.9,2471.207,13.29,0.012,270.0
2023-02-18T03:10:03,42.805,6.029,0.0,-0.016,-0.046,108.0,107.0,106.0,13.4,1505.2,318.3,-0.7,1.8,2471.177,13.29,0.016,180.0
2023-02-18T03:13:03,42.805,6.029,-0.018,-0.016,-0.025,108.0,107.0,106.0,13.4,1505.2,316.7,-0.8,1.8,2471.164,13.29,0.024,228.4
2023-02-18T03:16:03,42.805,6.029,-0.012,-0.013,0.0,108.0,107.0,106.0,13.3,1505.2,323.6,-0.7,1.8,2471.147,13.29,0.017,222.7
2023-02-18T03:19:03,42.805,6.029,-0.027,-0.003,-0.016,109.0,108.0,107.0,13.3,1505.2,337.6,-0.7,1.9,2471.137,13.29,0.027,263.7
2023-02-18T03:22:03,42.805,6.029,-0.019,0.0,-0.012,108.0,108.0,105.0,13.3,1505.2,317.6,-0.8,1.8,2471.165,13.29,0.019,270.0
2023-02-18T03:25:03,42.805,6.029,-0.017,0.001,-0.019,108.0,107.0,104.0,13.4,1505.2,330.2,-0.7,1.8,2471.169,13.29,0.017,273.4
2023-02-18T03:28:03,42.805,6.029,-0.027,-0.014,-0.007,108.0,107.0,105.0,13.4,1505.2,334.2,-0.8,1.8,2471.157,13.29,0.03,242.6
2023-02-18T03:31:03,42.805,6.029,-0.004,-0.009,-0.016,109.0,107.0,105.0,13.4,1505.2,323.7,-0.8,1.8,2471.144,13.29,0.009,204.0
2023-02-18T03:34:03,42.805,6.029,-0.032,-0.012,-0.026,108.0,107.0,103.0,13.4,1505.2,336.1,-0.8,1.8,2471.17,13.29,0.034,249.4
2023-02-18T03:37:03,42.805,6.029,-0.014,-0.017,0.014,107.0,105.0,107.0,13.3,1505.2,337.8,-0.8,1.8,2471.116,13.29,0.022,219.5
2023-02-18T03:40:03,42.805,6.029,-0.013,0.0,-0.004,107.0,107.0,105.0,13.4,1505.2,338.5,-0.8,1.8,2471.197,13.29,0.013,270.0
2023-02-18T03:43:03,42.805,6.029,-0.001,0.0,-0.001,107.0,106.0,104.0,13.4,1505.2,330.3,-0.7,1.8,2471.199,13.29,0.001,270.0
2023-02-18T03:46:03,42.805,6.029,0.002,0.0,-0.003,108.0,106.0,105.0,13.4,1505.2,326.0,-0.8,1.8,2471.183,13.29,0.002,90.0
2023-02-18T03:49:03,42.805,6.029,-0.011,-0.015,-0.012,107.0,106.0,105.0,13.4,1505.2,321.9,-0.7,1.8,2471.2,13.29,0.018,216.3
2023-02-18T03:52:03,42.805,6.029,-0.019,0.011,-0.019,107.0,106.0,104.0,13.4,1505.2,317.2,-0.8,1.8,2471.173,13.29,0.021,300.1
2023-02-18T03:55:03,42.805,6.029,-0.013,-0.017,-0.038,109.0,106.0,105.0,13.4,1505.2,322.5,-0.8,1.8,2471.225,13.29,0.021,217.4
2023-02-18T03:58:03,42.805,6.029,-0.02,-0.02,-0.031,108.0,107.0,104.0,13.3,1505.2,319.8,-0.8,1.8,2471.161,13.29,0.028,225.0
2023-02-18T04:04:03,42.805,6.029,0.002,0.0,-0.011,107.0,106.0,105.0,13.3,1505.2,323.6,-0.7,1.8,2471.248,13.29,0.002,90.0
2023-02-18T04:07:03,42.805,6.029,0.0,-0.004,-0.022,108.0,108.0,106.0,13.4,1505.2,325.2,-0.8,1.8,2471.239,13.29,0.004,180.0
2023-02-18T04:10:03,42.805,6.029,-0.004,-0.001,-0.038,107.0,108.0,106.0,13.4,1505.2,323.4,-0.7,1.8,2471.231,13.29,0.004,256.0
2023-02-18T04:13:03,42.805,6.029,-0.017,-0.009,-0.026,107.0,108.0,104.0,13.4,1505.2,333.4,-0.8,1.8,2471.257,13.29,0.019,242.1
2023-02-18T04:16:03,42.805,6.029,-0.01,-0.005,-0.034,108.0,107.0,104.0,13.4,1505.2,335.4,-0.8,1.8,2471.236,13.29,0.011,243.4
2023-02-18T04:19:03,42.805,6.029,0.001,-0.004,-0.048,107.0,107.0,106.0,13.3,1505.2,317.1,-0.8,1.8,2471.249,13.29,0.004,166.0
2023-02-18T04:22:03,42.805,6.029,-0.002,-0.019,-0.015,107.0,107.0,105.0,13.3,1505.2,325.2,-0.8,1.8,2471.204,13.29,0.019,186.0
2023-02-18T04:25:03,42.805,6.029,-0.004,-0.02,-0.015,106.0,107.0,105.0,13.3,1505.2,329.6,-0.7,1.8,2471.236,13.29,0.02,191.3
2023-02-18T04:28:03,42.805,6.029,-0.022,-0.007,-0.019,107.0,105.0,104.0,13.3,1505.2,323.3,-0.8,1.8,2471.226,13.29,0.023,252.4
2023-02-18T04:31:03,42.805,6.029,-0.001,-0.023,-0.015,107.0,106.0,104.0,13.3,1505.2,317.7,-0.8,1.8,2471.241,13.29,0.023,182.5
2023-02-18T04:34:03,42.805,6.029,-0.012,-0.004,-0.021,107.0,107.0,105.0,13.4,1505.2,332.2,-0.8,1.8,2471.223,13.29,0.012,251.6
2023-02-18T04:37:03,42.805,6.029,-0.008,-0.012,-0.011,108.0,106.0,104.0,13.3,1505.2,320.5,-0.8,1.9,2471.255,13.29,0.014,213.7
2023-02-18T04:40:03,42.805,6.029,-0.011,-0.011,-0.036,107.0,109.0,104.0,13.4,1505.2,323.6,-0.8,1.8,2471.227,13.29,0.015,225.0
2023-02-18T04:43:03,42.805,6.029,-0.013,-0.018,-0.033,108.0,107.0,104.0,13.4,1505.2,319.3,-0.8,1.8,2471.23,13.29,0.022,215.8
2023-02-18T04:46:03,42.805,6.029,0.008,0.013,-0.022,108.0,106.0,104.0,13.3,1505.2,330.9,-0.8,1.8,2471.187,13.29,0.015,31.6
2023-02-18T04:49:03,42.805,6.029,0.012,-0.017,-0.016,106.0,106.0,105.0,13.4,1505.2,324.2,-0.8,1.8,2471.242,13.29,0.02,144.8
2023-02-18T04:52:03,42.805,6.029,-0.016,-0.005,0.015,107.0,107.0,105.0,13.4,1505.2,332.5,-0.7,1.8,2471.24,13.29,0.016,252.6
2023-02-18T04:55:03,42.805,6.029,0.009,-0.023,-0.012,107.0,108.0,104.0,13.4,1505.2,337.1,-0.8,1.8,2471.227,13.29,0.024,158.6
2023-02-18T04:58:03,42.805,6.029,0.009,-0.006,0.005,107.0,105.0,105.0,13.4,1505.2,323.3,-0.7,1.8,2471.255,13.29,0.01,123.7
2023-02-18T05:04:03,42.805,6.029,-0.002,-0.014,-0.043,108.0,106.0,105.0,13.4,1505.2,322.6,-0.7,1.8,2471.296,13.29,0.014,188.1
2023-02-18T05:07:03,42.805,6.029,-0.002,0.003,-0.03,107.0,105.0,103.0,13.3,1505.2,323.1,-0.7,1.8,2471.265,13.29,0.003,326.3
2023-02-18T05:10:03,42.805,6.029,0.0,-0.012,-0.024,107.0,106.0,103.0,13.4,1505.2,326.0,-0.8,1.9,2471.282,13.29,0.012,180.0
2023-02-18T05:13:03,42.805,6.029,-0.019,-0.007,-0.007,106.0,106.0,104.0,13.4,1505.2,323.6,-0.7,1.8,2471.26,13.29,0.02,249.8
2023-02-18T05:16:03,42.805,6.029,-0.004,0.01,-0.006,107.0,106.0,104.0,13.4,1505.2,337.6,-0.8,1.9,2471.263,13.29,0.01,338.2
2023-02-18T05:19:03,42.805,6.029,-0.006,0.003,-0.034,107.0,105.0,105.0,13.3,1505.2,323.1,-0.8,1.8,2471.275,13.29,0.006,296.6
2023-02-18T05:22:03,42.805,6.029,0.005,-0.011,-0.012,107.0,106.0,104.0,13.4,1505.2,317.2,-0.8,1.8,2471.252,13.29,0.012,155.6
2023-02-18T05:25:03,42.805,6.029,-0.01,-0.004,-0.039,108.0,107.0,104.0,13.4,1505.2,328.5,-0.8,1.8,2471.276,13.29,0.01,248.2
2023-02-18T05:28:03,42.805,6.029,-0.004,-0.002,-0.018,108.0,107.0,106.0,13.4,1505.2,331.7,-0.8,1.8,2471.264,13.29,0.004,243.4
2023-02-18T05:31:03,42.805,6.029,-0.001,-0.01,-0.034,106.0,106.0,103.0,13.4,1505.2,322.2,-0.8,1.8,2471.269,13.29,0.01,185.7
2023-02-18T05:34:03,42.805,6.029,-0.006,-0.015,-0.02,106.0,106.0,105.0,13.4,1505.2,323.4,-0.8,1.8,2471.276,13.29,0.016,201.8
2023-02-18T05:37:03,42.805,6.029,0.005,-0.019,-0.011,107.0,106.0,105.0,13.3,1505.2,330.4,-0.8,1.8,2471.24,13.29,0.019,165.3
2023-02-18T05:40:03,42.805,6.029,-0.002,-0.019,-0.024,106.0,107.0,105.0,13.4,1505.2,318.6,-0.8,1.8,2471.269,13.29,0.019,186.0
2023-02-18T05:43:03,42.805,6.029,0.004,-0.008,-0.025,107.0,105.0,105.0,13.4,1505.2,324.7,-0.7,1.8,2471.279,13.29,0.008,153.4
2023-02-18T05:46:03,42.805,6.029,-0.01,-0.019,-0.022,107.0,106.0,105.0,13.3,1505.2,322.6,-0.7,1.8,2471.239,13.29,0.021,207.8
2023-02-18T05:49:03,42.805,6.029,-0.01,-0.005,-0.021,108.0,107.0,106.0,13.4,1505.2,322.6,-0.8,1.8,2471.25,13.29,0.011,243.4
2023-02-18T05:52:03,42.805,6.029,-0.013,0.002,-0.051,108.0,106.0,104.0,13.3,1505.2,324.2,-0.8,1.8,2471.223,13.29,0.013,278.7
2023-02-18T05:55:03,42.805,6.029,0.0,-0.024,-0.003,107.0,106.0,105.0,13.3,1505.2,325.1,-0.8,1.8,2471.248,13.29,0.024,180.0
2023-02-18T05:58:03,42.805,6.029,-0.011,-0.004,-0.015,107.0,106.0,105.0,13.4,1505.2,328.5,-0.8,1.8,2471.29,13.29,0.011,250.0
2023-02-18T06:04:03,42.805,6.029,0.0,-0.011,-0.007,108.0,106.0,106.0,13.3,1505.2,320.8,-0.8,1.8,2471.325,13.29,0.011,180.0
2023-02-18T06:07:03,42.805,6.029,-0.027,-0.02,-0.022,105.0,106.0,105.0,13.4,1505.2,323.4,-0.8,1.8,2471.267,13.29,0.033,233.5
2023-02-18T06:10:03,42.805,6.029,0.007,-0.01,-0.02,108.0,105.0,104.0,13.4,1505.2,327.3,-0.8,1.8,2471.316,13.29,0.012,145.0
2023-02-18T06:13:03,42.805,6.029,0.005,-0.023,-0.04,108.0,106.0,103.0,13.4,1505.2,330.0,-0.8,1.8,2471.258,13.29,0.023,167.7
2023-02-18T06:16:03,42.805,6.029,-0.012,-0.016,-0.02,107.0,106.0,104.0,13.3,1505.2,329.1,-0.8,1.8,2471.288,13.29,0.02,216.9
2023-02-18T06:19:03,42.805,6.029,0.0,-0.009,-0.01,106.0,108.0,104.0,13.4,1505.2,326.3,-0.8,1.8,2471.258,13.29,0.009,180.0
2023-02-18T06:22:03,42.805,6.029,0.0,-0.005,-0.002,107.0,106.0,104.0,13.3,1505.2,321.4,-0.8,1.8,2471.271,13.29,0.005,180.0
2023-02-18T06:25:03,42.805,6.029,0.008,-0.015,-0.026,107.0,105.0,104.0,13.4,1505.2,316.6,-0.8,1.8,2471.253,13.29,0.017,151.9
2023-02-18T06:28:03,42.805,6.029,0.014,-0.025,-0.006,109.0,105.0,104.0,13.4,1505.2,319.7,-0.7,1.8,2471.282,13.29,0.028,150.7
2023-02-18T06:31:03,42.805,6.029,0.002,-0.011,-0.023,108.0,106.0,105.0,13.3,1505.2,323.6,-0.8,1.8,2471.262,13.29,0.011,169.7
2023-02-18T06:34:03,42.805,6.029,0.004,-0.025,-0.03,107.0,107.0,104.0,13.4,1505.2,338.5,-0.8,1.8,2471.248,13.29,0.025,170.9
2023-02-18T06:37:03,42.805,6.029,-0.007,0.007,-0.01,106.0,107.0,105.0,13.3,1505.2,325.8,-0.8,1.8,2471.278,13.29,0.009,315.0
2023-02-18T06:40:03,42.805,6.029,-0.014,-0.019,-0.027,107.0,105.0,105.0,13.4,1505.2,319.2,-0.8,1.8,2471.275,13.29,0.023,216.4
2023-02-18T06:43:03,42.805,6.029,-0.021,-0.001,0.0,107.0,107.0,103.0,13.4,1505.2,324.9,-0.8,1.8,2471.232,13.29,0.021,267.3
2023-02-18T06:46:03,42.805,6.029,-0.012,-0.026,-0.012,107.0,107.0,104.0,13.4,1505.2,330.7,-0.7,1.8,2471.284,13.29,0.028,204.8
2023-02-18T06:49:03,42.805,6.029,-0.01,-0.018,-0.012,108.0,106.0,105.0,13.4,1505.2,330.3,-0.7,1.8,2471.252,13.29,0.02,209.1
2023-02-18T06:52:03,42.805,6.029,0.0,-0.009,-0.017,106.0,106.0,105.0,13.4,1505.2,334.3,-0.8,1.8,2471.246,13.29,0.009,180.0
2023-02-18T06:55:03,42.805,6.029,-0.003,-0.029,-0.059,107.0,106.0,104.0,13.4,1505.2,326.8,-0.8,1.8,2471.267,13.29,0.029,185.9
2023-02-18T06:58:03,42.805,6.029,-0.003,-0.012,-0.042,106.0,106.0,103.0,13.3,1505.2,317.6,-0.8,1.8,2471.251,13.29,0.012,194.0
2023-02-18T07:04:03,42.805,6.029,-0.01,-0.015,-0.005,107.0,106.0,104.0,13.3,1505.2,337.3,-0.8,1.8,2471.333,13.28,0.018,213.7
2023-02-18T07:07:03,42.805,6.029,0.008,0.009,-0.008,106.0,107.0,105.0,13.3,1505.2,315.5,-0.8,1.8,2471.293,13.28,0.012,41.6
2023-02-18T07:10:03,42.805,6.029,-0.007,0.001,-0.028,106.0,106.0,104.0,13.3,1505.2,323.4,-0.7,1.8,2471.276,13.29,0.007,278.1
2023-02-18T07:13:03,42.805,6.029,0.007,-0.012,-0.016,109.0,106.0,103.0,13.3,1505.2,335.3,-0.7,1.8,2471.266,13.29,0.013,149.7
2023-02-18T07:16:03,42.805,6.029,-0.003,-0.003,0.001,107.0,107.0,104.0,13.3,1505.2,326.7,-0.8,1.8,2471.265,13.29,0.004,225.0
2023-02-18T07:19:03,42.805,6.029,0.0,-0.019,-0.007,107.0,106.0,105.0,13.3,1505.2,328.7,-0.7,1.8,2471.283,13.29,0.019,180.0
2023-02-18T07:22:03,42.805,6.029,0.003,-0.031,-0.055,108.0,107.0,104.0,13.3,1505.2,329.5,-0.7,1.8,2471.232,13.29,0.031,174.5
2023-02-18T07:25:03,42.805,6.029,-0.008,0.011,0.011,107.0,106.0,104.0,13.3,1505.2,317.2,-0.8,1.8,2471.311,13.29,0.013,324.0
2023-02-18T07:28:03,42.805,6.029,0.0,0.012,0.003,107.0,106.0,104.0,13.3,1505.2,329.2,-0.8,1.8,2471.262,13.29,0.012,0.0
2023-02-18T07:31:03,42.805,6.029,0.006,-0.02,-0.034,108.0,106.0,104.0,13.3,1505.2,317.6,-0.8,1.8,2471.221,13.29,0.02,163.3
2023-02-18T07:34:03,42.805,6.029,-0.005,-0.003,-0.031,106.0,106.0,105.0,13.4,1505.2,316.7,-0.7,1.8,2471.224,13.29,0.005,239.0
2023-02-18T07:37:03,42.805,6.029,0.006,-0.02,-0.023,107.0,106.0,105.0,13.4,1505.2,331.2,-0.8,1.8,2471.245,13.29,0.02,163.3
2023-02-18T07:40:03,42.805,6.029,0.007,-0.018,-0.002,107.0,107.0,105.0,13.4,1505.2,334.3,-0.8,1.8,2471.249,13.29,0.019,158.8
2023-02-18T07:43:03,42.805,6.029,0.017,-0.003,-0.02,108.0,107.0,105.0,13.4,1505.2,318.7,-0.8,1.8,2471.269,13.29,0.017,100.0
2023-02-18T07:46:03,42.805,6.029,0.014,-0.025,-0.015,108.0,106.0,104.0,13.3,1505.2,323.1,-0.8,1.8,2471.215,13.29,0.028,150.7
2023-02-18T07:49:03,42.805,6.029,-0.01,-0.033,-0.016,105.0,106.0,105.0,13.4,1505.2,333.8,-0.8,1.8,2471.261,13.29,0.034,196.9
2023-02-18T07:52:03,42.805,6.029,0.018,-0.003,-0.006,107.0,106.0,103.0,13.4,1505.2,339.6,-0.7,1.8,2471.279,13.29,0.018,99.5
2023-02-18T07:55:03,42.805,6.029,0.009,-0.019,-0.022,107.0,104.0,104.0,13.4,1505.2,319.9,-0.8,1.8,2471.193,13.29,0.021,154.7
2023-02-18T07:58:03,42.805,6.029,0.003,-0.004,0.003,107.0,106.0,105.0,13.4,1505.2,323.6,-0.8,1.8,2471.214,13.29,0.005,143.1
2023-02-18T08:04:03,42.805,6.029,0.007,-0.018,-0.008,107.0,106.0,104.0,13.4,1505.2,326.3,-0.8,1.8,2471.261,13.28,0.019,158.8
2023-02-18T08:07:03,42.805,6.029,0.004,-0.01,-0.009,108.0,107.0,105.0,13.4,1505.2,325.0,-0.7,1.8,2471.271,13.29,0.01,158.2
2023-02-18T08:10:03,42.805,6.029,0.027,0.005,-0.011,108.0,107.0,104.0,13.4,1505.2,326.5,-0.8,1.8,2471.28,13.29,0.027,79.5
2023-02-18T08:13:03,42.805,6.029,0.008,-0.02,0.006,109.0,105.0,106.0,13.4,1505.2,321.0,-0.8,1.8,2471.258,13.29,0.021,158.2
2023-02-18T08:16:03,42.805,6.029,-0.012,0.01,0.008,106.0,107.0,105.0,13.3,1505.2,336.1,-0.8,1.8,2471.251,13.29,0.015,309.8
2023-02-18T08:19:03,42.805,6.029,-0.007,-0.009,-0.025,106.0,106.0,104.0,13.4,1505.2,337.0,-0.8,1.8,2471.226,13.29,0.011,217.9
2023-02-18T08:22:03,42.805,6.029,0.017,0.004,0.0,106.0,107.0,104.0,13.4,1505.2,324.3,-0.8,1.8,2471.259,13.29,0.017,76.8
2023-02-18T08:25:03,42.805,6.029,0.033,-0.02,-0.006,109.0,106.0,104.0,13.4,1505.2,317.2,-0.8,1.8,2471.238,13.29,0.038,121.2
2023-02-18T08:28:03,42.805,6.029,0.008,-0.021,0.014,107.0,107.0,104.0,13.4,1505.2,329.8,-0.8,1.8,2471.253,13.29,0.022,159.1
2023-02-18T08:31:03,42.805,6.029,0.013,-0.025,-0.011,107.0,106.0,104.0,13.4,1505.2,319.9,-0.7,1.8,2471.231,13.29,0.028,152.5
2023-02-18T08:34:03,42.805,6.029,0.0,-0.001,-0.031,106.0,107.0,105.0,13.3,1505.2,328.3,-0.8,1.8,2471.258,13.29,0.001,180.0
2023-02-18T08:37:03,42.805,6.029,0.021,-0.021,0.017,107.0,107.0,104.0,13.4,1505.2,319.3,-0.8,1.8,2471.226,13.29,0.029,135.0
2023-02-18T08:40:03,42.805,6.029,0.017,-0.012,-0.006,107.0,106.0,105.0,13.4,1505.2,337.5,-0.8,1.8,2471.258,13.29,0.02,125.2
2023-02-18T08:43:03,42.805,6.029,0.026,-0.022,-0.007,107.0,107.0,104.0,13.4,1505.2,341.5,-0.8,1.8,2471.217,13.29,0.034,130.2
2023-02-18T08:46:03,42.805,6.029,0.01,0.0,0.006,107.0,106.0,104.0,13.4,1505.2,327.3,-0.8,1.8,2471.244,13.29,0.01,90.0
2023-02-18T08:49:03,42.805,6.029,-0.005,-0.013,-0.006,106.0,107.0,105.0,13.3,1505.2,329.8,-0.8,1.8,2471.241,13.29,0.013,201.0
2023-02-18T08:52:03,42.805,6.029,-0.007,-0.004,-0.011,106.0,107.0,104.0,13.4,1505.2,333.8,-0.8,1.8,2471.222,13.29,0.008,240.3
2023-02-18T08:55:03,42.805,6.029,0.023,-0.017,-0.007,106.0,106.0,104.0,13.3,1505.2,329.7,-0.8,1.8,2471.239,13.29,0.028,126.5
2023-02-18T08:58:03,42.805,6.029,0.009,-0.013,0.021,108.0,107.0,105.0,13.4,1505.2,336.4,-0.8,1.8,2471.209,13.29,0.015,145.3
2023-02-18T09:04:03,42.805,6.029,0.002,-0.009,-0.01,107.0,107.0,105.0,13.3,1505.2,322.9,-0.8,1.8,2471.227,13.28,0.009,167.5
2023-02-18T09:07:03,42.805,6.029,0.011,-0.028,-0.018,107.0,107.0,104.0,13.3,1505.2,333.8,-0.8,1.8,2471.261,13.28,0.03,158.6
2023-02-18T09:10:03,42.805,6.029,-0.017,-0.024,-0.002,108.0,107.0,104.0,13.3,1505.2,327.9,-0.8,1.8,2471.2,13.29,0.029,215.3
2023-02-18T09:13:03,42.805,6.029,0.009,-0.006,-0.031,109.0,106.0,104.0,13.4,1505.2,322.9,-0.8,1.8,2471.221,13.29,0.01,123.7
2023-02-18T09:16:03,42.805,6.029,0.027,-0.008,-0.034,107.0,108.0,104.0,13.4,1505.2,322.1,-0.8,1.8,2471.212,13.29,0.028,106.5
2023-02-18T09:19:03,42.805,6.029,0.001,-0.023,-0.001,107.0,106.0,104.0,13.3,1505.2,337.3,-0.7,1.8,2471.223,13.29,0.023,177.5
2023-02-18T09:22:03,42.805,6.029,0.014,-0.008,-0.013,107.0,106.0,105.0,13.4,1505.2,318.1,-0.7,1.8,2471.231,13.29,0.016,119.7
2023-02-18T09:25:03,42.805,6.029,0.008,-0.019,-0.036,107.0,107.0,105.0,13.3,1505.2,318.7,-0.7,1.8,2471.204,13.29,0.02,157.2
2023-02-18T09:28:03,42.805,6.029,0.0,-0.025,-0.017,108.0,107.0,105.0,13.3,1505.2,328.1,-0.7,1.9,2471.166,13.29,0.025,180.0
2023-02-18T09:31:03,42.805,6.029,-0.003,-0.009,-0.006,108.0,107.0,105.0,13.4,1505.2,336.1,-0.8,1.8,2471.18,13.29,0.009,198.4
2023-02-18T09:34:03,42.805,6.029,-0.01,0.006,-0.012,108.0,107.0,105.0,13.4,1505.2,323.7,-0.7,1.8,2471.201,13.29,0.011,301.0
2023-02-18T09:37:03,42.805,6.029,0.003,-0.022,-0.051,108.0,106.0,105.0,13.3,1505.2,333.4,-0.8,1.8,2471.196,13.29,0.022,172.2
2023-02-18T09:40:03,42.805,6.029,0.01,-0.006,-0.005,108.0,107.0,104.0,13.4,1505.2,319.2,-0.7,1.8,2471.196,13.29,0.011,121.0
2023-02-18T09:43:03,42.805,6.029,-0.012,-0.003,0.015,107.0,108.0,104.0,13.4,1505.2,330.8,-0.8,1.8,2471.209,13.29,0.012,256.0
2023-02-18T09:46:03,42.805,6.029,0.008,-0.022,-0.047,108.0,107.0,105.0,13.4,1505.2,326.7,-0.8,1.8,2471.187,13.29,0.023,160.0
2023-02-18T09:49:03,42.805,6.029,-0.009,-0.022,-0.023,108.0,108.0,106.0,13.3,1505.2,326.3,-0.8,1.8,2471.214,13.29,0.023,202.2
2023-02-18T09:52:03,42.805,6.029,0.011,-0.023,-0.025,108.0,107.0,105.0,13.4,1505.2,317.6,-0.8,1.8,2471.158,13.29,0.025,154.4